Weather History for KSJS - May, 2014

Change the Weather History Date:

Friday, May 2, 2014

  Actual Average Record
Temperature  
Mean Temperature 54 °F -  
Max Temperature 64 °F - - ()
Min Temperature 46 °F - - ()
Degree Days  
Heating Degree Days 11    
Growing Degree Days 4 (Base 50)    
Moisture  
Dew Point 38 °F    
Average Humidity 53    
Maximum Humidity 72    
Minimum Humidity 40    
Precipitation  
Precipitation 0.00 in - - ()
Sea Level Pressure  
Sea Level Pressure 29.92 in    
Wind  
Wind Speed 4 mph (West)    
Max Wind Speed 10 mph    
Max Gust Speed 21 mph    
Visibility 10 miles    
Events      
Averages and records for this station are not official NWS values.
T = Trace of Precipitation, MM = Missing Value Source: NWS Daily Summary

Daily Weather History Graph

Daily Weather History Graph

Search for Another Location

Airport or City:

Trip Planner

Search our weather history database for the weather conditions in past years. The results will help you decide how hot, cold, wet, or windy it might be!

Date:

Astronomy

May. 02, 2014 Rise Set
Actual Time 6:33 AM EDT 8:21 PM EDT
Civil Twilight 6:05 AM EDT 8:50 PM EDT
Nautical Twilight 5:31 AM EDT 9:24 PM EDT
Astronomical Twilight 4:54 AM EDT 10:01 PM EDT
Moon 9:11 AM EDT (5/2) 11:42 PM EDT (5/2)
Length of Visible Light 14h 44m
Length of Day
13h 48m
Waxing Crescent, 12% of the Moon is Illuminated
May 2
Waxing Crescent
May 6
First Quarter
May 14
Full
May 21
Last Quarter
May 28
New

Hourly Weather History & Observations

Time (EDT) Temp. Dew Point Humidity Pressure Visibility Wind Dir Wind Speed Gust Speed Precip Events Conditions
12:15 AM 54.1 °F 36.1 °F 51% 29.94 in 10.0 mi WSW 4.6 mph - N/A   Overcast
12:35 AM 54.1 °F 36.0 °F 50% 29.94 in 10.0 mi SW 3.5 mph - N/A   Overcast
12:55 AM 54.1 °F 36.3 °F 51% 29.94 in 10.0 mi WSW 4.6 mph - N/A   Overcast
1:15 AM 53.6 °F 36.5 °F 52% 29.93 in 10.0 mi WSW 4.6 mph - N/A   Overcast
1:35 AM 53.4 °F 36.5 °F 53% 29.93 in 10.0 mi WSW 3.5 mph - N/A   Overcast
1:55 AM 52.9 °F 36.5 °F 54% 29.92 in 10.0 mi WSW 3.5 mph - N/A   Overcast
2:15 AM 52.2 °F 36.7 °F 56% 29.92 in 10.0 mi WSW 3.5 mph - N/A   Overcast
2:35 AM 52.2 °F 37.2 °F 57% 29.92 in 10.0 mi West 3.5 mph - N/A   Overcast
2:55 AM 51.8 °F 37.0 °F 57% 29.92 in 10.0 mi West 3.5 mph - N/A   Overcast
3:15 AM 51.8 °F 37.0 °F 57% 29.92 in 10.0 mi West 3.5 mph - N/A   Overcast
3:35 AM 51.4 °F 36.9 °F 58% 29.92 in 10.0 mi WSW 3.5 mph - N/A   Overcast
3:55 AM 50.2 °F 37.0 °F 61% 29.92 in 10.0 mi WSW 3.5 mph - N/A   Scattered Clouds
4:15 AM 50.0 °F 36.9 °F 61% 29.92 in 10.0 mi West 3.5 mph - N/A   Clear
4:35 AM 49.6 °F 37.0 °F 62% 29.92 in 10.0 mi West 5.8 mph - N/A   Clear
4:55 AM 49.5 °F 37.0 °F 62% 29.93 in 10.0 mi West 4.6 mph - N/A   Scattered Clouds
5:15 AM 48.6 °F 37.4 °F 65% 29.93 in 10.0 mi West 4.6 mph - N/A   Scattered Clouds
5:35 AM 48.0 °F 37.8 °F 68% 29.93 in 10.0 mi West 3.5 mph - N/A   Scattered Clouds
5:55 AM 47.7 °F 37.8 °F 69% 29.94 in 10.0 mi West 3.5 mph - N/A   Clear
6:15 AM 47.7 °F 37.6 °F 68% 29.94 in 10.0 mi West 3.5 mph - N/A   Clear
6:35 AM 47.8 °F 37.4 °F 67% 29.95 in 10.0 mi SW 3.5 mph - N/A   Clear
6:55 AM 46.6 °F 37.6 °F 71% 29.95 in 10.0 mi SW 3.5 mph - N/A   Clear
7:15 AM 46.9 °F 38.3 °F 72% 29.96 in 10.0 mi SW 3.5 mph - N/A   Clear
7:35 AM 47.7 °F 38.7 °F 71% 29.96 in 10.0 mi SW 3.5 mph - N/A   Clear
7:55 AM 48.9 °F 39.6 °F 70% 29.96 in 10.0 mi Calm Calm - N/A   Clear
8:15 AM 50.0 °F 39.7 °F 68% 29.96 in 10.0 mi Calm Calm - N/A   Clear
8:35 AM 50.7 °F 39.6 °F 66% 29.96 in 10.0 mi West 4.6 mph - N/A   Clear
8:55 AM 51.4 °F 39.6 °F 64% 29.97 in 10.0 mi West 4.6 mph - N/A   Clear
9:15 AM 52.2 °F 39.4 °F 62% 29.97 in 10.0 mi West 5.8 mph - N/A   Clear
9:35 AM 53.8 °F 40.1 °F 60% 29.97 in 10.0 mi West 3.5 mph - N/A   Clear
9:55 AM 54.0 °F 39.6 °F 58% 29.97 in 10.0 mi SW 4.6 mph - N/A   Clear
10:15 AM 54.7 °F 38.8 °F 55% 29.97 in 10.0 mi West 5.8 mph - N/A   Clear
10:35 AM 55.9 °F 39.2 °F 53% 29.96 in 10.0 mi SW 9.2 mph - N/A   Clear
10:55 AM 57.6 °F 39.2 °F 50% 29.96 in 10.0 mi SW 10.4 mph - N/A   Scattered Clouds
11:15 AM 56.5 °F 38.8 °F 52% 29.96 in 10.0 mi WSW 8.1 mph - N/A   Overcast
11:55 AM 59.0 °F 39.4 °F 48% 29.94 in 10.0 mi West 5.8 mph - N/A   Mostly Cloudy
12:15 PM 58.3 °F 37.6 °F 46% 29.94 in 10.0 mi West 6.9 mph - N/A   Mostly Cloudy
12:35 PM 58.3 °F 37.8 °F 46% 29.94 in 10.0 mi West 6.9 mph - N/A   Mostly Cloudy
12:55 PM 58.8 °F 36.7 °F 44% 29.94 in 10.0 mi WNW 9.2 mph 20.7 mph N/A   Overcast
1:15 PM 59.0 °F 37.6 °F 45% 29.93 in 10.0 mi WNW 8.1 mph - N/A   Overcast
1:35 PM 60.3 °F 37.9 °F 44% 29.92 in 10.0 mi West 9.2 mph - N/A   Overcast
1:55 PM 60.1 °F 37.6 °F 43% 29.92 in 10.0 mi WNW 6.9 mph - N/A   Overcast
2:15 PM 60.1 °F 37.2 °F 43% 29.92 in 10.0 mi WNW 9.2 mph - N/A   Overcast
2:35 PM 61.0 °F 37.8 °F 42% 29.92 in 10.0 mi West 8.1 mph - N/A   Overcast
2:55 PM 62.6 °F 38.5 °F 41% 29.90 in 10.0 mi West 4.6 mph - N/A   Overcast
3:15 PM 62.4 °F 38.3 °F 41% 29.90 in 10.0 mi West 5.8 mph - N/A   Overcast
3:35 PM 62.1 °F 37.6 °F 40% 29.90 in 10.0 mi WNW 4.6 mph 16.1 mph N/A   Overcast
3:55 PM 61.9 °F 37.9 °F 41% 29.89 in 10.0 mi WNW 5.8 mph - N/A   Overcast
4:15 PM 61.3 °F 38.5 °F 43% 29.89 in 10.0 mi WSW 10.4 mph 16.1 mph N/A   Overcast
4:35 PM 61.9 °F 38.1 °F 41% 29.89 in 10.0 mi WSW 5.8 mph - N/A   Overcast
4:55 PM 62.4 °F 38.5 °F 41% 29.88 in 10.0 mi WSW 5.8 mph - N/A   Mostly Cloudy
5:15 PM 61.9 °F 38.3 °F 42% 29.88 in 10.0 mi West 3.5 mph - N/A   Overcast
5:35 PM 62.2 °F 37.8 °F 40% 29.88 in 10.0 mi Calm Calm - N/A   Overcast
5:55 PM 62.2 °F 38.8 °F 42% 29.88 in 10.0 mi Calm Calm - N/A   Overcast
6:15 PM 61.9 °F 38.1 °F 41% 29.88 in 10.0 mi Calm Calm - N/A   Overcast
6:35 PM 61.9 °F 39.0 °F 43% 29.88 in 10.0 mi Calm Calm - N/A   Overcast
6:55 PM 61.7 °F 39.6 °F 44% 29.87 in 10.0 mi Calm Calm - N/A   Overcast
7:15 PM 60.8 °F 39.6 °F 46% 29.88 in 10.0 mi NW 3.5 mph - N/A   Overcast
7:35 PM 60.6 °F 39.4 °F 45% 29.88 in 10.0 mi NW 3.5 mph - N/A   Overcast
7:55 PM 59.9 °F 39.4 °F 47% 29.88 in 10.0 mi Calm Calm - N/A   Overcast
8:15 PM 59.2 °F 39.6 °F 48% 29.88 in 10.0 mi NNW 3.5 mph - N/A   Overcast
8:35 PM 59.0 °F 39.2 °F 48% 29.89 in 10.0 mi NNW 3.5 mph - N/A   Overcast
8:55 PM 58.3 °F 39.4 °F 49% 29.89 in 10.0 mi North 3.5 mph - N/A   Overcast
9:15 PM 57.6 °F 39.6 °F 51% 29.90 in 10.0 mi NNW 3.5 mph - N/A   Overcast
9:35 PM 56.7 °F 39.9 °F 54% 29.90 in 10.0 mi Calm Calm - N/A   Mostly Cloudy
9:55 PM 56.7 °F 40.3 °F 54% 29.91 in 10.0 mi NNW 3.5 mph - N/A   Mostly Cloudy
10:15 PM 56.3 °F 40.3 °F 55% 29.92 in 10.0 mi NNW 4.6 mph - N/A   Overcast
10:35 PM 56.3 °F 40.5 °F 55% 29.92 in 10.0 mi NNW 3.5 mph - N/A   Overcast
10:55 PM 55.9 °F 40.6 °F 56% 29.92 in 10.0 mi NW 3.5 mph - N/A   Overcast
11:15 PM 55.4 °F 41.2 °F 59% 29.92 in 10.0 mi Calm Calm - N/A   Overcast
11:35 PM 55.4 °F 41.2 °F 59% 29.92 in 10.0 mi Calm Calm - N/A   Overcast
11:55 PM 55.4 °F 41.2 °F 59% 29.93 in 10.0 mi Calm Calm - N/A   Overcast